Zurück zum Katalog

STARLINK-5235

AktivKommunikationVLEO
NORAD 54185·PAYLOAD·🇺🇸 United States

Gestartet Oct 28, 2022 von Vandenberg Space Force Base

Loading…

Nächste Überflüge (nächste 24 Stunden)

TLE

AktuellSource: CelesTrak SupGP

Epoche: Sep 14, 2026, 22:23 UTC

1 54185C 22141AE  26257.93312500 -.00017610  00000+0 -52020-3 0  2573
2 54185  53.1582 219.8287 0001346  95.1092  67.2811 15.34404284    17

Verfolge STARLINK-5235 in Echtzeit mit AllMySat

Download on the App Store